User: anonymous   Login
Location: Ch�tillon
(48.8024°N, 2.2935°E)
Time: 10:18:15
(UTC+00:00)
Language:

METEOR 2-6 DEB - Orbit

View from above orbital plane
View from above orbital plane
View from above satellite
View from above satellite

Ground track
Ground track

The orbit data is extracted from the following two-line orbital elements,

1 43298U 80073S   22226.28715940  .00001580  00000-0  69218-3 0  9997
2 43298  81.2158 337.1742 0023519  70.0527 290.3182 14.23144726438735
Epoch (UTC): 14 August 2022 06:53:30
Eccentricity: 0.0023519
inclination: 81.2158°
perigee height: 798 km
apogee height: 831 km
right ascension of ascending node: 337.1742°
argument of perigee: 70.0527°
revolutions per day: 14.23144726
mean anomaly at epoch: 290.3182°
orbit number at epoch: 43873

The dashed part of the orbit path shows where the satellite is in the earth's shadow,  

DLR